EHI
0 0 0 0 0 0 0 0 0 0 0 0 0 0 0 0 0 0 0 1 4 6 7 5 3 3 3 2 4 5 4 4 5 5 4 2 1 1 0 0 0 0 0 0
0 0 0 0 0 0 0 0 0 0 0 0 0 0 0 0 0 0 0 0 2 5 7 5 4 3 2 2 4 4 4 3 4 5 4 3 2 2 1 0 0 0 0 0
0 0 0 0 0 0 0 0 0 0 0 0 0 0 0 0 0 0 0 0 1 3 6 6 4 3 3 3 3 4 3 3 3 4 5 4 3 3 2 1 0 0 0 0
0 0 0 0 0 0 0 0 0 0 0 0 0 0 0 0 0 0 0 0 0 1 3 5 6 5 3 3 4 3 3 3 3 4 5 5 4 3 2 1 1 1 0 0
0 0 0 0 0 0 0 0 0 0 0 0 0 0 0 0 0 0 0 0 0 0 2 5 8 7 4 3 4 4 3 3 3 3 4 5 4 2 2 2 2 2 1 0
0 0 0 0 0 0 0 0 0 0 0 0 0 0 0 0 0 0 0 0 0 1 2 5 8 9 7 5 5 4 4 4 4 3 3 4 4 2 1 1 1 2 2 1
0 0 0 0 0 0 0 0 0 0 0 0 0 0 0 0 0 0 0 0 1 2 3 3 6 10 10 9 7 5 5 7 6 4 3 3 3 2 1 0 0 1 1 1
0 0 0 0 0 0 0 0 0 0 0 0 0 0 0 0 0 0 0 0 1 2 2 2 5 10 12 11 8 5 5 7 7 6 4 3 3 2 1 0 0 0 0 1
0 0 0 0 0 0 0 0 0 0 0 0 0 0 0 0 0 0 0 0 0 1 1 1 4 9 11 10 7 4 3 5 6 6 4 3 2 1 0 0 0 0 0 0
0 0 0 0 0 0 0 0 0 0 0 0 0 0 0 0 0 0 0 0 0 0 0 1 3 6 9 9 6 2 1 2 3 4 3 2 1 1 0 0 0 0 0 0
0 0 0 0 0 0 0 0 0 0 0 0 0 0 0 0 0 0 0 0 0 0 0 0 1 4 7 8 6 3 1 1 1 2 2 1 0 0 0 0 0 0 0 0
0 0 0 0 0 0 0 0 0 0 0 0 0 0 0 0 0 0 0 0 0 0 0 0 1 3 5 6 5 5 3 1 2 2 3 1 0 0 0 0 0 0 0 0
0 0 0 0 0 0 0 0 0 0 0 0 0 0 0 0 0 0 1 1 1 0 0 1 2 3 4 4 4 3 2 2 2 3 4 3 1 0 0 0 0 0 0 0
0 0 0 0 0 0 0 0 0 0 0 0 0 0 0 0 0 0 1 2 2 1 1 1 2 3 3 3 3 1 1 2 2 3 3 4 3 1 0 0 0 0 0 0
0 0 0 0 0 0 0 0 0 0 0 0 0 0 0 0 0 0 1 2 2 1 1 1 2 2 2 3 2 1 0 1 1 1 1 3 3 2 2 1 1 1 1 0
0 0 0 0 0 0 0 0 0 0 0 0 0 0 0 0 0 0 0 1 1 1 0 1 1 0 1 2 1 0 0 0 0 0 0 1 1 2 2 2 2 2 2 1
0 0 0 0 0 0 0 0 0 0 0 0 0 0 0 0 0 0 0 0 0 0 0 0 0 0 0 0 0 0 0 0 0 0 0 0 0 1 1 1 1 3 4 3
0 0 0 0 0 0 0 0 0 0 0 0 0 0 0 0 0 0 0 0 0 0 0 0 0 0 0 0 0 0 0 0 0 0 0 0 0 0 0 0 0 2 4 4
0 0 0 0 0 0 0 0 0 0 0 0 0 0 0 0 0 0 0 0 0 0 0 0 0 0 0 0 0 0 0 0 0 0 0 0 0 0 0 0 0 1 3 3
0 0 0 0 0 0 0 0 0 0 0 0 0 0 0 0 0 0 0 1 0 0 0 0 0 0 0 0 0 0 0 0 0 0 0 0 0 0 0 1 1 2 3 2
0 0 0 0 0 0 0 0 0 0 0 0 0 0 0 0 0 0 0 0 0 0 0 0 0 0 0 0 0 0 0 0 0 0 0 0 0 0 0 0 1 2 3 3
0 0 0 0 0 0 0 0 0 0 0 0 0 0 0 0 0 0 0 0 0 0 0 0 0 0 0 0 0 0 0 0 0 0 0 0 0 0 0 0 1 2 3 3
0 0 0 0 0 0 0 0 0 0 0 0 0 0 0 0 0 0 0 0 0 0 0 0 0 0 0 0 0 0 0 0 0 0 0 0 0 0 0 0 0 1 3 3
0 0 0 0 0 0 0 0 0 0 0 0 0 0 0 0 0 0 0 0 0 0 0 0 0 0 0 0 0 0 0 0 0 0 0 0 0 0 0 0 0 1 2 3
0 0 0 0 0 0 0 0 0 0 0 0 0 0 0 0 0 0 0 0 0 0 0 0 0 0 0 0 0 0 0 0 0 0 0 0 0 0 0 0 0 1 1 1
0 0 0 0 0 0 0 0 0 0 0 0 0 0 0 0 0 0 0 0 0 0 0 0 0 0 0 0 0 0 0 0 0 0 0 0 0 0 0 0 0 0 1 0
Wind_Speed
4 3 2 2 2 3 2 1 1 0 2 2 2 3 4 5 4 3 3 3 5 4 4 5 5 5 4 3 4 5 5 3 3 2 2 1 1 1 1 2 2 2 1 2
3 2 1 2 2 3 1 1 1 1 1 1 3 4 5 5 4 3 3 3 4 4 4 5 5 5 4 4 3 5 4 4 3 3 2 2 2 2 1 2 2 1 1 1
3 0 1 2 2 2 2 2 1 1 2 3 4 4 6 7 6 4 3 3 4 5 5 5 5 4 4 4 4 4 4 4 4 3 2 1 2 1 2 1 1 1 1 2
1 1 2 2 1 3 2 0 1 3 4 3 4 2 5 7 6 6 4 3 3 4 4 5 5 4 4 4 3 4 4 4 4 3 2 3 2 1 1 1 2 1 1 2
2 1 2 2 2 3 2 2 4 6 6 5 5 3 4 6 6 6 6 5 4 5 5 5 5 4 4 3 3 3 4 4 4 3 3 2 2 1 1 2 2 1 1 2
3 2 2 2 2 2 3 5 7 7 5 5 5 3 3 5 5 6 6 6 6 6 5 5 5 5 4 4 3 3 3 3 4 4 3 2 2 2 2 1 2 1 1 1
4 5 3 2 2 3 4 3 3 3 4 3 3 2 2 5 5 5 6 6 6 6 6 5 5 5 4 5 4 3 3 3 3 3 3 3 2 2 3 2 1 1 1 1
4 3 4 3 2 4 4 3 3 3 2 2 3 2 4 7 6 5 5 6 6 5 5 5 5 5 5 5 4 4 4 4 3 3 3 3 3 2 2 2 2 1 1 1
3 0 3 1 3 4 4 4 5 5 6 3 1 4 6 6 6 5 5 5 5 5 5 5 5 5 5 5 5 4 4 4 4 3 2 2 3 3 2 2 2 1 1 1
4 2 2 2 3 5 6 6 4 3 3 3 2 3 4 7 6 5 4 4 5 5 5 5 5 5 5 5 5 4 4 4 4 3 3 2 3 3 2 2 2 2 2 2
6 3 3 3 4 4 4 4 4 4 3 3 1 1 4 6 6 5 3 3 4 4 5 4 4 4 5 4 4 4 4 4 4 3 3 3 3 3 3 2 2 2 2 2
3 3 4 5 3 2 4 4 3 3 4 3 2 2 5 6 6 5 3 3 4 4 4 4 4 4 4 4 4 4 4 3 3 3 3 3 3 3 3 2 2 2 2 2
5 4 3 2 3 3 3 3 4 5 5 4 2 2 4 4 5 5 4 3 4 4 4 4 4 4 3 3 3 4 3 3 3 3 3 4 3 3 2 2 2 2 2 2
3 5 4 5 4 2 4 4 4 4 4 4 3 2 3 3 3 3 4 3 4 4 4 4 3 3 3 2 2 3 3 3 4 3 3 3 3 3 2 2 2 2 1 1
5 6 6 8 8 7 5 5 6 6 6 6 6 3 1 2 3 2 3 4 4 4 4 4 3 3 3 2 2 2 2 3 3 3 3 3 3 3 2 2 2 1 1 1
6 6 7 8 8 7 8 7 7 9 8 7 7 5 0 2 3 3 3 3 3 3 3 4 4 3 3 3 2 2 2 3 3 4 3 2 2 2 2 2 2 2 1 1
6 7 7 7 8 8 7 7 7 7 6 6 6 3 1 1 2 3 3 3 3 3 2 3 3 3 2 2 2 2 1 2 3 3 3 3 2 2 2 2 2 2 2 1
8 8 5 6 7 8 2 1 1 3 3 4 4 1 0 1 2 2 3 2 3 3 2 2 2 2 2 2 2 1 1 1 2 2 3 3 3 3 2 2 2 2 2 2
8 7 6 5 7 6 3 0 1 3 3 2 2 1 1 1 2 2 3 4 2 2 2 1 1 1 2 1 2 2 1 1 1 2 2 3 4 3 2 2 2 2 2 2
7 7 7 6 7 6 1 3 2 2 2 2 2 2 2 1 1 1 3 4 3 2 2 2 1 1 1 1 1 1 1 1 1 1 2 2 3 3 3 3 3 2 2 3
7 7 9 9 8 4 2 2 1 2 1 3 3 2 1 1 1 3 4 3 3 2 2 2 1 1 0 0 1 1 1 1 1 1 0 2 3 3 4 3 2 2 2 2
6 5 7 7 8 4 2 1 1 2 3 3 3 3 3 3 3 4 3 2 2 2 1 1 1 1 1 1 0 0 0 0 0 0 1 1 2 2 3 3 3 3 3 3
5 4 3 3 2 2 1 2 3 4 3 3 3 3 2 1 1 2 1 1 1 1 1 0 1 1 0 0 0 1 1 0 1 0 1 2 2 2 2 3 3 2 2 2
5 5 6 5 2 2 2 3 4 4 4 3 2 1 1 1 0 1 1 1 1 1 1 1 1 2 2 1 1 2 1 1 1 1 1 2 2 2 2 2 3 3 3 3
6 6 7 8 6 4 2 2 3 4 4 3 3 2 2 2 2 2 2 2 2 2 2 2 2 2 3 2 2 2 1 1 2 2 2 2 1 2 2 2 2 3 3 4
7 7 7 7 6 6 5 4 4 4 4 4 4 3 3 3 3 3 3 2 2 3 2 3 2 3 3 3 2 2 2 2 2 2 2 1 2 2 2 2 1 1 2 3
Wind_Direction
206 221 231 236 228 270 306 7 20 68 158 143 156 180 172 177 179 177 172 171 157 149 143 141 146 141 144 147 135 130 136 142 131 123 116 111 106 88 70 86 83 67 44 64
207 214 251 275 265 247 215 221 221 277 216 192 181 207 178 169 169 165 175 168 144 133 136 133 139 148 154 141 136 141 143 137 126 129 136 140 138 127 104 81 78 87 56 76
227 28 304 252 267 269 222 236 241 265 276 237 202 200 173 168 171 163 170 154 142 142 144 144 146 148 147 146 148 146 140 135 128 127 125 113 81 86 89 95 90 71 50 69
236 242 279 265 270 282 276 295 247 245 253 241 228 209 176 164 164 162 168 156 144 144 138 136 140 145 154 154 148 141 139 130 124 129 131 137 133 131 134 130 130 128 121 97
227 205 262 282 302 300 294 279 252 247 251 262 237 224 177 164 170 169 170 160 154 143 141 140 143 144 145 138 134 134 130 124 129 135 129 136 132 136 120 113 111 108 97 95
227 226 257 280 282 291 260 262 260 243 247 255 231 214 171 169 166 167 166 158 157 148 145 144 144 141 138 128 124 119 129 130 135 138 134 140 129 121 110 99 106 109 103 90
218 204 189 212 251 240 249 280 275 229 214 233 195 172 128 132 135 144 153 154 157 150 150 146 146 146 140 136 136 137 123 124 130 136 137 137 126 118 121 121 117 107 101 98
246 216 183 204 252 268 251 236 269 298 281 255 186 142 115 119 126 131 135 143 144 141 138 137 139 139 140 143 142 142 141 141 136 135 143 139 130 123 125 129 115 119 114 122
298 245 124 163 287 285 284 267 271 283 286 289 192 125 123 129 127 126 121 126 135 137 133 132 133 140 145 146 148 154 154 151 148 152 152 141 135 130 127 134 123 122 132 126
305 288 220 191 245 248 274 296 293 284 296 273 225 179 153 147 135 125 123 135 138 139 143 140 141 142 143 145 149 150 158 158 155 162 171 148 139 139 135 130 131 135 132 114
299 277 241 216 223 250 242 268 285 293 273 295 304 54 96 121 118 124 127 119 121 133 143 142 135 136 138 140 148 156 159 153 154 163 164 142 138 137 137 142 130 121 123 129
311 299 266 250 240 282 278 274 285 288 292 278 283 82 85 118 122 118 113 111 116 121 124 126 129 133 137 146 153 158 156 149 148 153 144 140 147 142 147 154 143 152 154 154
339 293 283 244 204 201 261 272 282 283 285 284 267 129 111 109 117 117 114 114 114 120 119 116 116 123 132 147 153 146 147 142 141 142 145 142 141 146 163 161 165 159 149 152
299 274 275 283 303 299 267 273 275 280 278 291 285 167 150 134 115 112 119 125 120 122 126 123 121 125 128 134 140 147 147 143 137 136 136 138 152 155 160 145 141 140 143 151
256 270 271 273 281 284 279 272 265 263 270 277 291 295 200 133 133 135 139 135 130 132 135 134 135 137 138 142 150 142 144 146 144 143 143 155 159 146 145 141 139 143 153 161
253 273 279 276 271 269 267 261 258 260 264 266 276 286 137 121 129 143 144 136 130 139 144 144 150 150 160 166 175 175 175 166 156 155 155 144 156 149 153 162 163 168 178 179
248 264 282 281 282 274 259 250 248 254 259 265 270 276 138 136 152 168 164 159 159 147 137 147 156 155 167 170 170 173 196 165 147 153 158 156 159 161 170 178 170 174 175 165
264 272 271 275 272 261 261 89 256 269 275 283 288 259 179 136 121 128 129 139 142 132 132 149 160 149 155 162 153 158 186 195 166 167 170 164 164 165 174 182 181 189 179 176
244 255 268 270 269 264 251 175 285 260 266 302 299 333 41 75 104 115 104 89 78 92 96 101 114 127 141 156 157 160 177 211 187 173 181 168 164 167 175 188 207 212 195 192
231 240 250 258 266 268 76 65 21 311 260 2 10 50 49 87 214 103 94 89 78 76 80 76 63 70 127 159 144 163 180 200 230 208 190 173 167 168 183 203 213 217 211 206
217 228 238 251 257 263 52 40 329 253 34 37 39 38 31 4 51 96 92 88 82 81 83 82 74 47 27 44 164 188 189 215 237 229 233 188 181 189 192 203 203 204 211 198
248 244 240 245 249 247 73 89 308 348 31 35 28 24 37 50 68 92 101 112 104 84 77 83 90 67 30 14 8 282 252 252 103 184 218 231 216 212 201 185 199 205 193 194
250 260 273 267 270 54 75 21 358 352 346 2 7 18 29 25 64 120 133 139 135 139 134 169 161 158 183 171 212 274 270 214 155 206 232 223 239 234 202 183 191 197 187 192
273 280 274 273 256 285 320 346 344 338 329 330 338 333 318 295 282 166 172 175 203 198 193 207 205 204 212 199 218 252 257 212 193 230 243 221 224 230 225 201 187 186 192 195
295 296 282 277 280 272 265 300 307 310 309 313 307 297 285 274 263 225 218 210 219 223 210 217 214 216 219 206 207 237 248 258 236 232 215 212 217 211 218 210 192 192 199 191
272 273 270 272 290 292 289 292 299 298 298 294 287 282 276 264 259 252 242 228 222 225 223 223 217 218 227 218 209 214 221 242 248 242 206 194 202 207 193 185 217 238 204 191